Miscellaneous Local Product
Issued by NWS North Platte, NE

Home | Current Version | Previous Version | Text Only | Print | Product List | Glossary On
Versions: 1 2 3 4 5 6 7 8 9 10 11 12 13 14 15 16 17 18 19 20 21 22 23 24 25 26 27 28 29 30 31 32 33 34 35 36 37 38 39 40 41 42 43 44 45 46 47 48 49 50
002
AXUS43 KLBF 300610
MISLBF


WESTERN AND NORTH CENTRAL NEBRASKA HOURLY WEATHER ROUNDUP
NATIONAL WEATHER SERVICE NORTH PLATTE NE
100 AM CDT FRI SEP 30 2016

NOTE: "FAIR" INDICATES FEW OR NO CLOUDS BELOW 12,000 FEET WITH NO
SIGNIFICANT WEATHER AND/OR OBSTRUCTIONS TO VISIBILITY.

NOTE: STATIONS NOT REPORTING VARIABLES SUCH AS SKY/WEATHER OR
PRESSURE ARE PROVIDED BY RAWS AND APRS NETWORKS AND ARE NOT UNDER
NATIONAL WEATHER SERVICE QUALITY CONTROL.

...OBSERVATIONS IN AND NEAR THE EASTERN PANHANDLE OF NEBRASKA...

CITY           SKY/WX    TMP DP  RH WIND       PRES   REMARKS
PINE RIDGE     CLOUDY    61  41  47 S23G35    30.20S
CHADRON        CLEAR     62  40  44 S14G32    30.18S
ALLIANCE       CLOUDY    54  41  61 S15       30.25S
SIDNEY         CLOUDY    54  40  59 SE7       30.27S
$$

...OBSERVATIONS IN NORTHERN NEBRASKA AND FAR SOUTHERN SOUTH DAKOTA...

CITY           SKY/WX    TMP DP  RH WIND       PRES   REMARKS
WINNER         FAIR      53  45  74 S9        30.28F
THEDFORD       CLEAR     49  41  74 SE7       30.30F
AINSWORTH      CLEAR     51  45  79 S10       30.30F
O`NEILL        CLEAR     49  44  82 SE6       30.34S
ORD            LGT RAIN  41  38  89 CALM      30.33S
BROKEN BOW     CLEAR     38  37  97 CALM      30.32F
VALENTINE NWR    N/A     50  41  71 S9          N/A
BUTTE            N/A     47  44  89 SE8         N/A
HALSEY           N/A     48  41  76 SE6         N/A
EWING            N/A     48  45  89 CALM        N/A
$$

...OBSERVATIONS IN SOUTHWEST NEBRASKA AND FAR NORTHEAST COLORADO...

CITY           SKY/WX    TMP DP  RH WIND       PRES   REMARKS
WRAY           FAIR      54  37  54 E9        30.28F
HOLYOKE        FAIR      54  41  62 SE8       30.28S
IMPERIAL       CLEAR     52  42  69 SE12      30.29F
OGALLALA       CLEAR     54  42  63 SE7       30.29S
NORTH PLATTE   CLEAR     45  40  82 E9        30.31S
MCCOOK         CLEAR     51  44  77 SE7       30.31F
LEXINGTON      CLEAR     46  41  82 CALM      30.33S
STAPLETON        N/A     47  41  79 CALM        N/A
GOTHENBURG       N/A     47  40  76 CALM        N/A
CALLAWAY         N/A     44  43  95 SE7         N/A
$$

...OBSERVATIONS IN CENTRAL LINCOLN COUNTY AREA...

CITY           SKY/WX    TMP DP  RH WIND       PRES   REMARKS
N.P. AIRPORT   CLEAR     45  40  82 E9        30.31S
N.P. DOWNTOWN    N/A     53  43  70 CALM        N/A
N.P. SOUTHEAST   N/A     52  42  70 SE3         N/A
N.P. HILLCREST   N/A     51  43  73 SE6         N/A
$$

...SOME OBSERVATIONS FROM AROUND THE REGION...

CITY           SKY/WX    TMP DP  RH WIND       PRES   REMARKS
DENVER         PTCLDY    61  38  42 VRB6      30.24S
LARAMIE        CLOUDY    51  44  77 CALM      30.36F
CHEYENNE       CLOUDY    55  40  56 CALM      30.29F
SCOTTSBLUFF    PTCLDY    56  41  57 SE10      30.24S
RAPID CITY     MOCLDY    62  43  49 SE15      30.17F
BISMARCK       PTCLDY    52  45  77 SE10      30.25S
PIERRE         CLEAR     55  46  71 SE16      30.24F
SIOUX FALLS    CLEAR     48  45  89 NE3       30.36S
OMAHA          CLEAR     49  45  86 NW8       30.33F
GRAND ISLAND   CLEAR     49  44  83 SE6       30.34F
KANSAS CITY    PTCLDY    54  47  77 N6        30.28F
WICHITA        PTCLDY    56  50  80 NE6       30.30F
OKLAHOMA CITY  CLOUDY    57  50  77 NW5       30.28F
DALLAS         CLEAR     62  52  69 NW8       30.22F
AMARILLO       CLEAR     56  44  64 S14       30.32F
DODGE CITY     CLOUDY    50  44  80 SE7       30.31F
HAYS           CLEAR     48  36  61 SE3       30.32F
GOODLAND       CLEAR     50  39  66 S14       30.28F
$$




USA.gov is the U.S. government's official web portal to all federal, state and local government web resources and services.